Showing default

LILACSAT 2, 40908

Orbit data source: Space-Track

LILACSAT 2, 40908 is a payload satellite owned by Harbin (CN) in SSO that was launched on Sat, 19 Sep 2015 UTC via a CHANG ZHENG 6 launch vehicle from the Taiyaun Space Center, China (TSC). Payload-class satellites include a variety of spacecraft equipped with specific instruments for various scientific and technological missions. These include communications satellites like Starlink; space stations such as the ISS; scientific satellites like the Hubble; Earth observation satellites from companies like Planet Labs, Umbra, and HawkEye 360; GPS; miniature CubeSats for education and research; and military/defense satellites.

Loading next visibility...
Identifier
40908, 2015-049K
Orbit
SSO
Country
Flag of CNCN / PRC
Related business
Manufacturer
Harbin
Mission
Operational Amateur Com/Tech
Bus & Motor
CAS-3H, Unknown motor
Mass
11 kg wet, 11 kg dry
Launch date (UTC)
2015-09-19 (10 years ago)
Launch vehicle
CHANG ZHENG 6
Launch site
Taiyaun Space Center, China (TSC)
Object type
Payload
Rocket body
Debris
Shape & HBR
Box, 0.1 m
Radar Cross Section
0.060 m², Small (<0.1 m²)

Expand to show TLE details & history
Last TLE update: 14 hours ago

TLE from 14 hours ago
0 LILACSAT 2
1 40908U 15049K   25338.76749535  .00028277  00000-0  61290-3 0  9994
2 40908  97.4915   3.9065 0006471 230.0961 129.9718 15.44367126565675
Epoch: 2025-12-04T18:25Z
TLE epoch observation values (Epoch: 2025-12-04T18:25:11.598Z)
Latitude
-0.00009°
Longitude
13.78897°
Altitude
439.193 km
Speed
7.647 km/s
True Right ascension
00h 15m 37s
True Declination
0° 00' 00"
Sunlit
Object was in partial shadow at epoch
Visualization orbit readout
Latitude
Unknown
Longitude
Unknown
Altitude
Unknown
Speed
Unknown
Apparent Right ascension
Unknown
Apparent Declination
Unknown
Sunlit
N/A
Visualization observer readout
Local Sidereal Time
06:48:21
Azimuth
Unknown
Elevation
Unknown
Doppler factor
Unknown
Orbital elements
Apogee altitude
434.581 km
Perigee altitude
425.77 km
Semi-major axis
6,808.312 km
Eccentricity
0.00065
Inclination
97.4915°
RAAN
3.9065°
Arg. of periapsis
230.0961°
True anomaly
130.0286°
Mean anomaly
129.9718°
Eccentric anomaly
130.0002°
Mean motion
3.86353 °/min
Orbital period
93.18 mins
BSTAR
0.0006129
Loading maneuver chart data...
Computing Atmospheric mass density...
Loading historical data...
Loading historical data...
Loading historical data...
Loading historical data...
Loading historical data...
Loading historical data...
Loading historical data...

Documentation

Showing up to 5 results
|